星链-37217(STARLINK-37217)

导读

STARLINK-37217(NORAD编号68335)是美国SpaceX公司星链(Starlink)低轨互联网星座中的一颗卫星,属于二代星链组网卫星,部署于约550公里近地轨道。星链星座旨在构建全球覆盖的低时延卫星互联网,单颗星链卫星配备相控阵天线与激光通信链路,可实现高速数据传输,为全球提供宽带接入服务。该卫星采用氩气推进系统完成轨道机动与姿态控制,依托低轨部署将通信时延压缩至25毫秒左右,支持手机直连等多元化应用。作为星链大规模组网的组成部分,它承担着为地面用户提供宽带互联网接入的任务,是SpaceX构建全球天基通信网络的重要节点。

Basic Information
目录编号:
68335
目录名称:
STARLINK-37217
国际标识:
2026-059Q
轨道中心:
EARTH
卫星名称:
星链-37217
卫星全名:
星链-37217(STARLINK-37217)
卫星状态:
在轨 (已飞行173 天)
发射日期:
2026-03-22 UTC
国别 :
美国 (US)
星等 :
--
This satellite is enrolled in the Space Conjunction Data Service (SCDS) and the current flight risk assessment level is: High Risk
Orbit Information
数据来源 国际轨道数据
星历时间: 2026-09-11T15:40:00+0800
9小时前
查看轨道信息
半长轴: 6840.776km
偏心率: 0.0001165
轨道倾角: 53.157°
近地点辐角 84.644°
升交点赤经 196.979°
平近点角 275.469°
近地点: 461.842km
远地点: 463.436km
周期: 93.846分钟
每日圈数: 15.344219
Detailed Information
固有亮度:
5
最大亮度:
2.5
卫星平台:
Starlink V1.0
覆盖范围:
全球
运营商:
太空探索技术公司
运营商所在国:
美国
制造商(研发单位):
太空探索技术公司
制造商所在国:
美国
使用方式:
暂无
Satellite Introduction
Starlink 计划是 SpaceX 推出的全球卫星互联网项目,通过发射低轨道卫星,为全球尤其是偏远地区提供高速、低延迟的互联网服务。自 2019 年起,Starlink 已部署数千颗卫星,旨在缩小全球数字鸿沟,推动互联网普及。该项目还为军事、航空等行业提供通信支持,带来广泛经济效益。
2D Orbit Map
3D Orbit Map
Orbit Altitude Analysis Chart
Orbit Inclination Analysis Chart
Orbit Comprehensive Analysis Chart
View Comprehensive Chart
Conjunction Data List
Event ID Objects TCA Miss Dist (km) Collision Risk Probability Collision Risk Index (CRI) Action
CDM_260912-140406-151306-833521
2026-09-12T
14:04:41+0000
0.957 km
远距离
2.736812E-5 中风险 0.64
CDM_260913-120706-628606-833521
2026-09-13T
12:07:51+0000
1.002 km
极远距离
2.296784E-5 中风险 0.62
CDM_260911-222606-351706-833521
2026-09-11T
22:26:25+0000
1.092 km
极远距离
1.727252E-5 中风险 0.6
CDM_260913-122505-173506-833521
2026-09-13T
12:25:02+0000
0.648 km
远距离
1.580175E-5 中风险 0.59
CDM_260913-112106-126106-833521
2026-09-13T
11:21:22+0000
1.283 km
极远距离
9.703323E-6 低风险 0.55
CDM_260913-045506-151306-833521
2026-09-13T
04:55:39+0000
1.425 km
极远距离
6.91163E-6 低风险 0.52
CDM_260912-000006-351706-833521
2026-09-12T
00:00:13+0000
1.495 km
极远距离
5.892367E-6 低风险 0.5
CDM_260912-162406-351706-833521
2026-09-12T
16:24:59+0000
1.567 km
极远距离
5.059423E-6 低风险 0.49
CDM_260911-155706-337506-833521
2026-09-11T
15:57:56+0000
1.404 km
极远距离
4.91458E-6 低风险 0.49
CDM_260912-003306-337506-833521
2026-09-12T
00:33:47+0000
1.453 km
极远距离
4.386191E-6 低风险 0.48
Miss Distance Evolution Trend with All Objects
Collision Probability Evolution Trend with All Objects